Home > Weather > Eureka > Past weeks

Flag for Canada Weather for the Past 2 Weeks in Eureka, Nunavut, Canada

Now
-38 °F

Passing clouds.


Feels Like: -52 °F
Forecast: -42 / -31 °F
Wind: 3 mph from East

Location: Eureka

Current Time: Feb 12, 2016 at 1:17:34 PM

Latest Report: Feb 12, 2016 at 12:00 PM


Visibility: 15 mi

Pressure: 30.41 "Hg

Humidity: 65%

Dew point: -45 °F

Location of EurekaLocation

Historic Weather in Eureka — Graph

°F

Eureka Temperature Yesterday

Maximum temperature yesterday: -36 °F (at 1:00 AM)
Minimum temperature yesterday: -42 °F (at 3:00 PM)
Average temperature yesterday: -40 °F

High & Low Weather Summary for the Past Weeks

 TemperatureHumidityPressure
High10 °F (Feb 1, 2:00 PM)90% (Feb 6, 6:00 AM)30.58 "Hg (Feb 6, 6:00 AM)
Low-42 °F (Feb 7, 1:00 AM)49% (Feb 4, 2:00 AM)29.66 "Hg (Jan 28, 12:00 PM)
Average-30 °F65%30.10 "Hg
* Reported Jan 28 12:00 Noon — Feb 12 12:00 Noon, Eureka, Weather by CustomWeather, © 2016

Note: Actual official high and low records may vary slightly from our data, if they occured in-between our weather recording intervals... More about our weather records

Advertising

Eureka Weather History for the Previous 24 Hours

 ConditionsComfort  
Time TempWeatherWind HumidityBarometerVisibility
12:00 PM
Fri, Feb 12
-38 °FPassing clouds.3 mph65%30.41 "Hg15 mi
11:00 AM-38 °FScattered clouds.No wind65%30.42 "Hg15 mi
10:00 AM-40 °FScattered clouds.2 mph72%30.42 "Hg15 mi
9:00 AM-38 °FPassing clouds.3 mph65%30.41 "Hg15 mi
8:00 AM-40 °FPassing clouds.No wind65%30.41 "Hg15 mi
7:00 AM-42 °FSnow flurries. Passing clouds.3 mph72%30.42 "Hg6 mi
6:00 AM-40 °FSnow flurries. Sunny.2 mph65%30.42 "Hg6 mi
5:00 AM-40 °FSnow flurries. Clear.3 mph65%30.43 "Hg6 mi
4:00 AM-40 °FSnow flurries. Clear.6 mph65%30.42 "Hg6 mi
3:00 AM-40 °FSnow flurries. Clear.No wind65%30.42 "Hg3 mi
2:00 AM-42 °FSnow flurries. Clear.5 mph72%30.42 "Hg6 mi
1:00 AM-42 °FSnow flurries. Clear.2 mph72%30.41 "Hg6 mi
12:00 AM-42 °FSunny.3 mph72%30.41 "Hg10 mi
9:00 PM
Thu, Feb 11
-40 °FSnow flurries. Clear.2 mph72%30.40 "Hg6 mi
8:00 PM-42 °FClear.2 mph72%30.39 "Hg15 mi
7:00 PM-42 °FClear.No wind72%30.39 "Hg15 mi
6:00 PM-42 °FSunny.3 mph65%30.39 "Hg15 mi
5:00 PM-40 °FSunny.2 mph72%30.39 "Hg15 mi
4:00 PM-40 °FPassing clouds.No wind65%30.38 "Hg15 mi
3:00 PM-42 °FPassing clouds.5 mph72%30.38 "Hg15 mi
2:00 PM-40 °FPassing clouds.No wind65%30.38 "Hg15 mi
1:00 PM-40 °FPassing clouds.3 mph72%30.37 "Hg15 mi
Weather by CustomWeather, © 2016

See weather overviewHow to use our weather pages